Van Nuys, CA

7:43 PM PDT on April 29, 2017 (GMT -0700)
Van Nuys

Weather History for KVNY - October, 2013

Change the Weather History Date:

Saturday, October 5, 2013

  Actual Average Record
Temperature  
Mean Temperature 80 °F -  
Max Temperature 89 °F 82 °F 100 °F (2014)
Min Temperature 71 °F 55 °F 53 °F (1998)
Cooling Degree Days 16    
Growing Degree Days 30 (Base 50)    
Moisture  
Dew Point 12 °F    
Average Humidity 8    
Maximum Humidity 11    
Minimum Humidity 5    
Precipitation  
Precipitation 0.00 in - - ()
Sea Level Pressure  
Sea Level Pressure 30.05 in    
Wind  
Wind Speed 14 mph (NNE)    
Max Wind Speed 24 mph    
Max Gust Speed 30 mph    
Visibility 10 miles    
Events      
Averages and records for this station are not official NWS values.
T = Trace of Precipitation, MM = Missing Value Source: NWS Daily Summary

Daily Weather History Graph

Daily Weather History Graph

Search for Another Location

Airport or City:

Trip Planner

Search our weather history database for the weather conditions in past years. The results will help you decide how hot, cold, wet, or windy it might be!

Date:

Astronomy

Oct. 05, 2013 Rise Set
Actual Time 6:51 AM PDT 6:32 PM PDT
Civil Twilight 6:26 AM PDT 6:57 PM PDT
Nautical Twilight 5:57 AM PDT 7:26 PM PDT
Astronomical Twilight 5:28 AM PDT 7:55 PM PDT
Moon 7:32 AM PDT (10/5) 6:58 PM PDT (10/5)
Length of Visible Light 12h 30m
Length of Day
11h 40m
New Moon, 1% of the Moon is Illuminated
Oct 5
New Moon
Oct 11
First Quarter
Oct 18
Full
Oct 26
Last Quarter
Nov 3
New

Hourly Weather History & Observations

Time (PDT) Temp. Dew Point Humidity Pressure Visibility Wind Dir Wind Speed Gust Speed Precip Events Conditions
12:51 AM 75.0 °F 10.9 °F 9% 30.03 in 10.0 mi NNE 10.4 mph - N/A   Clear
1:51 AM 72.0 °F 12.0 °F 10% 30.04 in 10.0 mi NNE 6.9 mph - N/A   Clear
2:51 AM 75.0 °F 12.0 °F 9% 30.04 in 10.0 mi NNE 13.8 mph 19.6 mph N/A   Clear
3:51 AM 75.0 °F 14.0 °F 10% 30.03 in 10.0 mi NNE 13.8 mph - N/A   Clear
4:51 AM 73.0 °F 14.0 °F 11% 30.04 in 10.0 mi NNE 11.5 mph - N/A   Clear
5:51 AM 73.0 °F 14.0 °F 11% 30.05 in 10.0 mi NNE 13.8 mph - N/A   Clear
6:51 AM 73.0 °F 15.1 °F 11% 30.07 in 10.0 mi NNE 18.4 mph - N/A   Clear
7:51 AM 75.0 °F 15.1 °F 10% 30.09 in 10.0 mi NNE 17.3 mph 28.8 mph N/A   Clear
8:51 AM 79.0 °F 12.0 °F 8% 30.09 in 10.0 mi NE 18.4 mph 26.5 mph N/A   Clear
9:51 AM 80.1 °F 12.9 °F 8% 30.11 in 10.0 mi NNE 18.4 mph 27.6 mph N/A   Clear
10:51 AM 82.0 °F 12.0 °F 7% 30.11 in 10.0 mi NNE 24.2 mph 29.9 mph N/A   Clear
11:51 AM 84.0 °F 12.9 °F 7% 30.10 in 10.0 mi NNE 23.0 mph 29.9 mph N/A   Clear
12:51 PM 86.0 °F 10.9 °F 6% 30.07 in 10.0 mi North 18.4 mph 28.8 mph N/A   Clear
1:51 PM 89.1 °F 10.0 °F 5% 30.04 in 10.0 mi NE 19.6 mph 24.2 mph N/A   Clear
2:51 PM 88.0 °F 10.9 °F 6% 30.03 in 10.0 mi North 20.7 mph 28.8 mph N/A   Clear
3:51 PM 89.1 °F 10.9 °F 5% 30.02 in 10.0 mi North 11.5 mph 19.6 mph N/A   Clear
4:51 PM 88.0 °F 12.0 °F 6% 30.02 in 10.0 mi North 15.0 mph - N/A   Clear
5:51 PM 84.9 °F 12.0 °F 7% 30.02 in 10.0 mi North 15.0 mph - N/A   Clear
6:51 PM 81.0 °F 10.0 °F 7% 30.03 in 10.0 mi North 11.5 mph - N/A   Clear
7:51 PM 79.0 °F 10.0 °F 7% 30.04 in 10.0 mi North 11.5 mph - N/A   Clear
8:51 PM 77.0 °F 10.9 °F 8% 30.04 in 10.0 mi North 12.7 mph - N/A   Clear
9:51 PM 77.0 °F 9.0 °F 7% 30.05 in 10.0 mi North 12.7 mph - N/A   Clear
10:51 PM 75.9 °F 9.0 °F 8% 30.05 in 10.0 mi North 10.4 mph - N/A   Clear
11:51 PM 71.1 °F 12.0 °F 10% 30.05 in 10.0 mi SSW 3.5 mph - N/A   Clear